Time,TemperatureF,DewpointF,PressureIn,WindDirection,WindDirectionDegrees,WindSpeedMPH,WindSpeedGustMPH,Humidity,HourlyPrecipIn,Conditions,Clouds,dailyrainin,SoftwareType,DateUTC
2013-07-02 00:03:00,75.2,56.4,30.13,North,0,0.4,1.8,52,0.00,,,0.00,WUHU216HW,2013-07-02 07:03:00,
2013-07-02 00:08:00,75.2,57.0,30.13,North,0,0.9,1.8,53,0.00,,,0.00,WUHU216HW,2013-07-02 07:08:00,
2013-07-02 00:14:00,75.1,56.3,30.13,WNW,293,0.7,0.9,52,0.00,,,0.00,WUHU216HW,2013-07-02 07:14:00,
2013-07-02 00:19:00,74.9,56.1,30.13,North,0,0.4,1.8,52,0.00,,,0.00,WUHU216HW,2013-07-02 07:19:00,
2013-07-02 00:24:00,74.9,56.1,30.13,WSW,248,0.2,1.8,52,0.00,,,0.00,WUHU216HW,2013-07-02 07:24:00,
2013-07-02 00:29:00,74.7,55.9,30.13,NNE,23,0.4,0.9,52,0.00,,,0.00,WUHU216HW,2013-07-02 07:29:00,
2013-07-02 00:34:00,74.2,54.9,30.13,WSW,248,1.1,1.1,51,0.00,,,0.00,WUHU216HW,2013-07-02 07:34:00,
2013-07-02 00:39:00,73.8,54.6,30.13,West,270,0.0,1.1,51,0.00,,,0.00,WUHU216HW,2013-07-02 07:39:00,
2013-07-02 00:44:00,73.4,54.2,30.13,West,270,0.4,1.1,51,0.00,,,0.00,WUHU216HW,2013-07-02 07:44:00,
2013-07-02 00:49:00,73.1,53.8,30.13,SW,225,0.0,0.4,51,0.00,,,0.00,WUHU216HW,2013-07-02 07:49:00,
2013-07-02 00:54:00,72.7,53.5,30.13,SW,225,0.0,0.4,51,0.00,,,0.00,WUHU216HW,2013-07-02 07:54:00,
2013-07-02 00:59:00,72.4,53.6,30.13,NW,315,0.4,1.1,52,0.00,,,0.00,WUHU216HW,2013-07-02 07:59:00,
2013-07-02 01:04:00,72.0,53.4,30.13,WNW,293,0.9,1.1,52,0.00,,,0.00,WUHU216HW,2013-07-02 08:04:00,
2013-07-02 01:09:00,71.6,53.0,30.13,West,270,1.1,2.5,52,0.00,,,0.00,WUHU216HW,2013-07-02 08:09:00,
2013-07-02 01:14:00,71.5,53.4,30.13,North,0,1.8,2.5,53,0.00,,,0.00,WUHU216HW,2013-07-02 08:14:00,
2013-07-02 01:19:00,71.3,53.2,30.13,NNW,338,1.1,2.0,53,0.00,,,0.00,WUHU216HW,2013-07-02 08:19:00,
2013-07-02 01:25:00,71.3,53.2,30.13,North,0,0.4,1.6,53,0.00,,,0.00,WUHU216HW,2013-07-02 08:25:00,
2013-07-02 01:30:00,71.3,53.2,30.13,NW,315,2.5,2.5,53,0.00,,,0.00,WUHU216HW,2013-07-02 08:30:00,
2013-07-02 01:35:00,71.6,53.0,30.13,NW,315,0.4,2.5,52,0.00,,,0.00,WUHU216HW,2013-07-02 08:35:00,
2013-07-02 01:40:00,71.6,53.0,30.13,NNW,338,1.1,2.0,52,0.00,,,0.00,WUHU216HW,2013-07-02 08:40:00,
2013-07-02 01:45:00,71.6,53.0,30.13,North,0,0.7,2.0,52,0.00,,,0.00,WUHU216HW,2013-07-02 08:45:00,
2013-07-02 01:50:00,71.5,53.4,30.13,NNW,338,0.9,1.6,53,0.00,,,0.00,WUHU216HW,2013-07-02 08:50:00,
2013-07-02 01:55:00,71.3,53.2,30.13,WNW,293,1.1,1.6,53,0.00,,,0.00,WUHU216HW,2013-07-02 08:55:00,
2013-07-02 02:00:00,71.3,53.2,30.13,WNW,293,0.9,3.4,53,0.00,,,0.00,WUHU216HW,2013-07-02 09:00:00,
2013-07-02 02:05:00,71.3,52.8,30.13,West,270,2.5,3.4,52,0.00,,,0.00,WUHU216HW,2013-07-02 09:05:00,
2013-07-02 02:10:00,71.3,52.8,30.12,NW,315,1.1,2.5,52,0.00,,,0.00,WUHU216HW,2013-07-02 09:10:00,
2013-07-02 02:15:00,71.1,52.6,30.12,WNW,293,0.4,2.0,52,0.00,,,0.00,WUHU216HW,2013-07-02 09:15:00,
2013-07-02 02:20:00,70.7,52.8,30.12,WNW,293,0.7,1.6,53,0.00,,,0.00,WUHU216HW,2013-07-02 09:20:00,
2013-07-02 02:25:00,70.7,52.8,30.12,North,0,0.2,1.1,53,0.00,,,0.00,WUHU216HW,2013-07-02 09:25:00,
2013-07-02 02:30:00,70.6,52.6,30.12,NNW,338,0.2,1.1,53,0.00,,,0.00,WUHU216HW,2013-07-02 09:30:00,
2013-07-02 02:35:00,70.6,52.6,30.12,North,0,0.9,1.1,53,0.00,,,0.00,WUHU216HW,2013-07-02 09:35:00,
2013-07-02 02:40:00,70.4,52.4,30.12,North,0,0.4,1.1,53,0.00,,,0.00,WUHU216HW,2013-07-02 09:40:00,
2013-07-02 02:45:00,70.4,52.9,30.12,NW,315,0.4,1.3,54,0.00,,,0.00,WUHU216HW,2013-07-02 09:45:00,
2013-07-02 02:50:00,70.4,52.9,30.12,WNW,293,0.7,2.9,54,0.00,,,0.00,WUHU216HW,2013-07-02 09:50:00,
2013-07-02 02:55:00,70.6,53.1,30.12,NW,315,1.3,2.9,54,0.00,,,0.00,WUHU216HW,2013-07-02 09:55:00,
2013-07-02 03:00:00,70.4,52.9,30.12,West,270,2.2,2.2,54,0.00,,,0.00,WUHU216HW,2013-07-02 10:00:00,
2013-07-02 03:05:00,70.2,52.7,30.12,SW,225,0.4,2.2,54,0.00,,,0.00,WUHU216HW,2013-07-02 10:05:00,
2013-07-02 03:10:00,70.0,52.6,30.12,North,0,0.9,1.3,54,0.00,,,0.00,WUHU216HW,2013-07-02 10:10:00,
2013-07-02 03:15:00,69.8,51.9,30.12,WNW,293,0.2,1.8,53,0.00,,,0.00,WUHU216HW,2013-07-02 10:15:00,
2013-07-02 03:20:00,69.8,51.9,30.12,North,0,0.0,1.8,53,0.00,,,0.00,WUHU216HW,2013-07-02 10:20:00,
2013-07-02 03:25:00,69.8,52.4,30.12,NE,45,0.0,0.4,54,0.00,,,0.00,WUHU216HW,2013-07-02 10:25:00,
2013-07-02 03:30:00,69.7,52.3,30.12,NW,315,0.2,1.1,54,0.00,,,0.00,WUHU216HW,2013-07-02 10:30:00,
2013-07-02 03:35:00,69.5,52.6,30.12,NNE,23,0.7,1.1,55,0.00,,,0.00,WUHU216HW,2013-07-02 10:35:00,
2013-07-02 03:41:00,69.5,52.6,30.12,SSW,203,0.2,0.9,55,0.00,,,0.00,WUHU216HW,2013-07-02 10:41:00,
2013-07-02 03:46:00,69.3,52.9,30.12,WNW,293,0.9,1.3,56,0.00,,,0.00,WUHU216HW,2013-07-02 10:46:00,
2013-07-02 03:51:00,69.3,53.4,30.12,NNW,338,0.2,1.3,57,0.00,,,0.00,WUHU216HW,2013-07-02 10:51:00,
2013-07-02 03:56:00,68.9,53.6,30.12,NNE,23,0.9,2.2,58,0.00,,,0.00,WUHU216HW,2013-07-02 10:56:00,
2013-07-02 04:01:00,68.8,54.8,30.12,WNW,293,2.5,2.5,61,0.00,,,0.00,WUHU216HW,2013-07-02 11:01:00,
2013-07-02 04:06:00,68.8,55.2,30.12,WNW,293,0.7,2.5,62,0.00,,,0.00,WUHU216HW,2013-07-02 11:06:00,
2013-07-02 04:11:00,68.6,55.4,30.12,NNW,338,0.7,2.5,63,0.00,,,0.00,WUHU216HW,2013-07-02 11:11:00,
2013-07-02 04:16:00,68.4,56.2,30.12,North,0,0.7,1.8,65,0.00,,,0.00,WUHU216HW,2013-07-02 11:16:00,
2013-07-02 04:21:00,68.2,56.4,30.12,NNW,338,0.4,2.5,66,0.00,,,0.00,WUHU216HW,2013-07-02 11:21:00,
2013-07-02 04:26:00,68.0,56.3,30.12,WNW,293,1.6,3.1,66,0.00,,,0.00,WUHU216HW,2013-07-02 11:26:00,
2013-07-02 04:31:00,67.9,56.5,30.12,NW,315,1.6,3.1,67,0.00,,,0.00,WUHU216HW,2013-07-02 11:31:00,
2013-07-02 04:36:00,67.7,56.4,30.12,NW,315,2.0,2.0,67,0.00,,,0.00,WUHU216HW,2013-07-02 11:36:00,
2013-07-02 04:41:00,67.7,56.4,30.12,WNW,293,1.3,2.5,67,0.00,,,0.00,WUHU216HW,2013-07-02 11:41:00,
2013-07-02 04:46:00,67.7,56.7,30.12,WNW,293,2.0,2.9,68,0.00,,,0.00,WUHU216HW,2013-07-02 11:46:00,
2013-07-02 04:51:00,67.7,56.7,30.13,South,180,2.7,3.4,68,0.00,,,0.00,WUHU216HW,2013-07-02 11:51:00,
2013-07-02 04:56:00,67.7,56.4,30.13,East,90,0.7,4.5,67,0.00,,,0.00,WUHU216HW,2013-07-02 11:56:00,
2013-07-02 05:01:00,67.7,56.4,30.13,NE,45,0.2,4.7,67,0.00,,,0.00,WUHU216HW,2013-07-02 12:01:00,
2013-07-02 05:06:00,67.5,55.7,30.13,NNW,338,0.7,4.9,66,0.00,,,0.00,WUHU216HW,2013-07-02 12:06:00,
2013-07-02 05:11:00,67.3,56.0,30.13,WSW,248,3.8,4.9,67,0.00,,,0.00,WUHU216HW,2013-07-02 12:11:00,
2013-07-02 05:16:00,67.0,55.6,30.13,ENE,68,1.8,4.7,67,0.00,,,0.00,WUHU216HW,2013-07-02 12:16:00,
2013-07-02 05:21:00,67.0,55.6,30.13,SSW,203,0.9,4.7,67,0.00,,,0.00,WUHU216HW,2013-07-02 12:21:00,
2013-07-02 05:26:00,67.0,56.9,30.13,NNE,23,2.9,4.0,70,0.00,,,0.00,WUHU216HW,2013-07-02 12:26:00,
2013-07-02 05:31:00,66.8,57.9,30.13,NNW,338,3.6,3.6,73,0.00,,,0.00,WUHU216HW,2013-07-02 12:31:00,
2013-07-02 05:36:00,66.6,57.7,30.13,NW,315,2.7,4.7,73,0.00,,,0.00,WUHU216HW,2013-07-02 12:36:00,
2013-07-02 05:41:00,66.4,57.5,30.13,NW,315,2.2,5.4,73,0.00,,,0.00,WUHU216HW,2013-07-02 12:41:00,
2013-07-02 05:46:00,66.1,57.5,30.13,West,270,5.1,5.4,74,0.00,,,0.00,WUHU216HW,2013-07-02 12:46:00,
2013-07-02 05:51:00,66.1,57.2,30.13,West,270,4.5,5.1,73,0.00,,,0.00,WUHU216HW,2013-07-02 12:51:00,
2013-07-02 05:56:00,66.1,57.2,30.13,SW,225,3.1,4.5,73,0.00,,,0.00,WUHU216HW,2013-07-02 12:56:00,
2013-07-02 06:01:00,66.1,57.5,30.13,North,0,2.0,3.1,74,0.00,,,0.00,WUHU216HW,2013-07-02 13:01:00,
2013-07-02 06:06:00,66.1,57.2,30.13,NW,315,2.0,3.8,73,0.00,,,0.00,WUHU216HW,2013-07-02 13:06:00,
2013-07-02 06:11:00,66.1,57.2,30.13,NW,315,2.0,3.8,73,0.00,,,0.00,WUHU216HW,2013-07-02 13:11:00,
2013-07-02 06:16:00,66.2,56.9,30.13,NNW,338,1.8,3.8,72,0.00,,,0.00,WUHU216HW,2013-07-02 13:16:00,
2013-07-02 06:21:00,66.2,56.5,30.13,WNW,293,1.3,2.5,71,0.00,,,0.00,WUHU216HW,2013-07-02 13:21:00,
2013-07-02 06:26:00,66.2,56.2,30.13,NW,315,0.4,3.6,70,0.00,,,0.00,WUHU216HW,2013-07-02 13:26:00,
2013-07-02 06:32:00,66.2,56.2,30.13,North,0,1.1,3.6,70,0.00,,,0.00,WUHU216HW,2013-07-02 13:32:00,
2013-07-02 06:37:00,66.2,56.2,30.13,North,0,0.0,1.1,70,0.00,,,0.00,WUHU216HW,2013-07-02 13:37:00,
2013-07-02 06:42:00,66.4,55.9,30.13,ENE,68,0.0,1.1,69,0.00,,,0.00,WUHU216HW,2013-07-02 13:42:00,
2013-07-02 06:43:00,66.4,55.9,30.13,East,90,0.4,1.1,69,0.00,,,0.00,WUHU216HW,2013-07-02 13:43:00,
2013-07-02 06:48:00,66.4,55.9,30.13,WNW,293,0.4,2.0,69,0.00,,,0.00,WUHU216HW,2013-07-02 13:48:00,
2013-07-02 06:53:00,66.6,56.9,30.13,NW,315,0.4,2.0,71,0.00,,,0.00,WUHU216HW,2013-07-02 13:53:00,
2013-07-02 06:58:00,66.4,56.7,30.13,NW,315,1.6,1.6,71,0.00,,,0.00,WUHU216HW,2013-07-02 13:58:00,
2013-07-02 07:03:00,66.6,56.5,30.13,West,270,0.0,1.6,70,0.00,,,0.00,WUHU216HW,2013-07-02 14:03:00,
2013-07-02 07:08:00,66.6,56.5,30.14,South,180,0.9,0.9,70,0.00,,,0.00,WUHU216HW,2013-07-02 14:08:00,
2013-07-02 07:13:00,66.8,56.7,30.14,ESE,113,0.4,1.1,70,0.00,,,0.00,WUHU216HW,2013-07-02 14:13:00,
2013-07-02 07:18:00,67.0,57.2,30.14,West,270,0.9,2.9,71,0.00,,,0.00,WUHU216HW,2013-07-02 14:18:00,
2013-07-02 07:23:00,67.1,57.4,30.14,SW,225,0.2,2.9,71,0.00,,,0.00,WUHU216HW,2013-07-02 14:23:00,
2013-07-02 07:28:00,67.1,57.4,30.13,West,270,4.0,4.0,71,0.00,,,0.00,WUHU216HW,2013-07-02 14:28:00,
2013-07-02 07:33:00,67.3,57.6,30.13,SSW,203,0.4,4.0,71,0.00,,,0.00,WUHU216HW,2013-07-02 14:33:00,
2013-07-02 07:38:00,67.3,57.6,30.13,West,270,1.8,2.5,71,0.00,,,0.00,WUHU216HW,2013-07-02 14:38:00,
2013-07-02 07:43:00,67.7,58.0,30.13,WSW,248,0.4,1.8,71,0.00,,,0.00,WUHU216HW,2013-07-02 14:43:00,
2013-07-02 07:48:00,68.0,58.3,30.13,WSW,248,2.5,2.5,71,0.00,,,0.00,WUHU216HW,2013-07-02 14:48:00,
2013-07-02 07:53:00,68.2,58.2,30.14,WNW,293,2.2,3.1,70,0.00,,,0.00,WUHU216HW,2013-07-02 14:53:00,
2013-07-02 07:58:00,68.6,58.4,30.13,West,270,2.5,3.1,70,0.00,,,0.00,WUHU216HW,2013-07-02 14:58:00,
2013-07-02 08:03:00,68.8,58.1,30.14,SW,225,1.1,2.7,69,0.00,,,0.00,WUHU216HW,2013-07-02 15:03:00,
2013-07-02 08:08:00,68.9,58.8,30.14,West,270,2.0,2.5,70,0.00,,,0.00,WUHU216HW,2013-07-02 15:08:00,
2013-07-02 08:13:00,69.3,58.2,30.14,West,270,1.8,2.5,68,0.00,,,0.00,WUHU216HW,2013-07-02 15:13:00,
2013-07-02 08:18:00,69.7,58.1,30.14,SW,225,1.1,2.5,67,0.00,,,0.00,WUHU216HW,2013-07-02 15:18:00,
2013-07-02 08:23:00,70.0,58.2,30.14,West,270,1.8,1.8,66,0.00,,,0.00,WUHU216HW,2013-07-02 15:23:00,
2013-07-02 08:28:00,70.6,58.6,30.13,West,270,2.9,2.9,66,0.00,,,0.00,WUHU216HW,2013-07-02 15:28:00,
2013-07-02 08:33:00,70.9,58.5,30.13,NW,315,1.3,3.1,65,0.00,,,0.00,WUHU216HW,2013-07-02 15:33:00,
2013-07-02 08:38:00,71.6,58.8,30.14,West,270,2.5,3.1,64,0.00,,,0.00,WUHU216HW,2013-07-02 15:38:00,
2013-07-02 08:43:00,72.0,58.7,30.14,NW,315,0.2,2.5,63,0.00,,,0.00,WUHU216HW,2013-07-02 15:43:00,
2013-07-02 08:48:00,72.5,57.9,30.14,WNW,293,0.9,1.3,60,0.00,,,0.00,WUHU216HW,2013-07-02 15:48:00,
2013-07-02 08:53:00,73.1,58.3,30.14,SW,225,0.2,1.3,60,0.00,,,0.00,WUHU216HW,2013-07-02 15:53:00,
2013-07-02 08:58:00,73.4,58.7,30.14,West,270,0.2,2.5,60,0.00,,,0.00,WUHU216HW,2013-07-02 15:58:00,
2013-07-02 09:03:00,73.8,59.0,30.14,NW,315,0.2,2.5,60,0.00,,,0.00,WUHU216HW,2013-07-02 16:03:00,
2013-07-02 09:08:00,74.5,57.2,30.14,NW,315,2.2,3.1,55,0.00,,,0.00,WUHU216HW,2013-07-02 16:08:00,
2013-07-02 09:13:00,75.1,57.8,30.14,West,270,0.9,3.1,55,0.00,,,0.00,WUHU216HW,2013-07-02 16:13:00,
2013-07-02 09:18:00,75.6,57.8,30.14,NW,315,2.5,2.5,54,0.00,,,0.00,WUHU216HW,2013-07-02 16:18:00,
2013-07-02 09:23:00,76.0,58.2,30.14,NW,315,1.3,3.4,54,0.00,,,0.00,WUHU216HW,2013-07-02 16:23:00,
2013-07-02 09:28:00,76.1,58.8,30.14,ENE,68,2.2,3.4,55,0.00,,,0.00,WUHU216HW,2013-07-02 16:28:00,
2013-07-02 09:33:00,76.3,59.0,30.14,ENE,68,0.4,2.5,55,0.00,,,0.00,WUHU216HW,2013-07-02 16:33:00,
2013-07-02 09:38:00,76.7,58.8,30.14,East,90,1.8,2.7,54,0.00,,,0.00,WUHU216HW,2013-07-02 16:38:00,
2013-07-02 09:43:00,77.2,58.2,30.14,North,0,1.6,2.9,52,0.00,,,0.00,WUHU216HW,2013-07-02 16:43:00,
2013-07-02 09:48:00,77.8,58.8,30.13,SW,225,1.1,2.9,52,0.00,,,0.00,WUHU216HW,2013-07-02 16:48:00,
2013-07-02 09:53:00,78.3,58.7,30.13,West,270,0.7,3.1,51,0.00,,,0.00,WUHU216HW,2013-07-02 16:53:00,
2013-07-02 09:58:00,78.7,57.9,30.13,WNW,293,5.1,5.1,49,0.00,,,0.00,WUHU216HW,2013-07-02 16:58:00,
2013-07-02 10:03:00,78.8,59.2,30.14,WSW,248,1.1,5.1,51,0.00,,,0.00,WUHU216HW,2013-07-02 17:03:00,
2013-07-02 10:08:00,79.2,59.1,30.14,North,0,4.5,4.5,50,0.00,,,0.00,WUHU216HW,2013-07-02 17:08:00,
2013-07-02 10:14:00,79.6,59.9,30.14,NNE,23,4.0,4.5,51,0.00,,,0.00,WUHU216HW,2013-07-02 17:14:00,
2013-07-02 10:19:00,79.7,59.5,30.14,NNW,338,7.6,7.6,50,0.00,,,0.00,WUHU216HW,2013-07-02 17:19:00,
2013-07-02 10:24:00,79.9,59.7,30.13,ENE,68,3.4,7.6,50,0.00,,,0.00,WUHU216HW,2013-07-02 17:24:00,
2013-07-02 10:29:00,80.3,59.4,30.13,North,0,1.1,6.9,49,0.00,,,0.00,WUHU216HW,2013-07-02 17:29:00,
2013-07-02 10:34:00,80.5,60.1,30.14,SSE,158,1.3,3.1,50,0.00,,,0.00,WUHU216HW,2013-07-02 17:34:00,
2013-07-02 10:39:00,80.6,59.7,30.14,NE,45,3.1,3.1,49,0.00,,,0.00,WUHU216HW,2013-07-02 17:39:00,
2013-07-02 10:44:00,80.6,59.7,30.13,ENE,68,0.4,4.7,49,0.00,,,0.00,WUHU216HW,2013-07-02 17:44:00,
2013-07-02 10:49:00,80.8,59.9,30.14,ENE,68,0.4,4.7,49,0.00,,,0.00,WUHU216HW,2013-07-02 17:49:00,
2013-07-02 10:54:00,81.0,59.4,30.13,NNW,338,1.8,2.0,48,0.00,,,0.00,WUHU216HW,2013-07-02 17:54:00,
2013-07-02 10:59:00,81.5,60.5,30.13,WSW,248,1.1,2.0,49,0.00,,,0.00,WUHU216HW,2013-07-02 17:59:00,
2013-07-02 11:04:00,81.9,59.6,30.13,North,0,0.2,2.0,47,0.00,,,0.00,WUHU216HW,2013-07-02 18:04:00,
2013-07-02 11:09:00,82.1,59.1,30.13,WNW,293,0.7,4.0,46,0.00,,,0.00,WUHU216HW,2013-07-02 18:09:00,
2013-07-02 11:14:00,82.1,59.8,30.13,SW,225,0.4,4.0,47,0.00,,,0.00,WUHU216HW,2013-07-02 18:14:00,
2013-07-02 11:19:00,82.4,60.1,30.13,SSE,158,1.3,4.3,47,0.00,,,0.00,WUHU216HW,2013-07-02 18:19:00,
2013-07-02 11:24:00,82.4,59.5,30.13,NNW,338,2.5,4.3,46,0.00,,,0.00,WUHU216HW,2013-07-02 18:24:00,
2013-07-02 11:29:00,82.8,59.9,30.13,WSW,248,1.3,3.6,46,0.00,,,0.00,WUHU216HW,2013-07-02 18:29:00,
2013-07-02 11:34:00,83.2,60.1,30.13,WNW,293,0.0,1.8,46,0.00,,,0.00,WUHU216HW,2013-07-02 18:34:00,
2013-07-02 11:39:00,83.5,59.9,30.13,NE,45,3.1,3.8,45,0.00,,,0.00,WUHU216HW,2013-07-02 18:39:00,
2013-07-02 11:44:00,83.5,59.2,30.13,ESE,113,1.1,3.8,44,0.00,,,0.00,WUHU216HW,2013-07-02 18:44:00,
2013-07-02 11:49:00,83.7,60.0,30.12,SW,225,0.7,3.8,45,0.00,,,0.00,WUHU216HW,2013-07-02 18:49:00,
2013-07-02 11:54:00,84.1,60.4,30.12,ENE,68,2.9,4.0,45,0.00,,,0.00,WUHU216HW,2013-07-02 18:54:00,
2013-07-02 11:59:00,84.2,59.3,30.13,South,180,1.3,4.7,43,0.00,,,0.00,WUHU216HW,2013-07-02 18:59:00,
2013-07-02 12:04:00,84.6,58.4,30.13,NW,315,3.8,4.7,41,0.00,,,0.00,WUHU216HW,2013-07-02 19:04:00,
2013-07-02 12:09:00,85.1,59.5,30.13,NNW,338,1.1,3.8,42,0.00,,,0.00,WUHU216HW,2013-07-02 19:09:00,
2013-07-02 12:14:00,85.5,60.5,30.12,NNE,23,1.6,3.1,43,0.00,,,0.00,WUHU216HW,2013-07-02 19:14:00,
2013-07-02 12:19:00,85.7,59.9,30.12,ENE,68,1.1,6.3,42,0.00,,,0.00,WUHU216HW,2013-07-02 19:19:00,
2013-07-02 12:24:00,86.2,61.1,30.12,SSE,158,1.6,6.3,43,0.00,,,0.00,WUHU216HW,2013-07-02 19:24:00,
2013-07-02 12:29:00,86.6,61.4,30.12,ENE,68,1.8,3.4,43,0.00,,,0.00,WUHU216HW,2013-07-02 19:29:00,
2013-07-02 12:34:00,86.8,61.6,30.12,SSE,158,2.5,3.4,43,0.00,,,0.00,WUHU216HW,2013-07-02 19:34:00,
2013-07-02 12:39:00,87.1,60.7,30.12,South,180,0.9,3.4,41,0.00,,,0.00,WUHU216HW,2013-07-02 19:39:00,
2013-07-02 12:44:00,87.5,60.9,30.12,North,0,4.9,5.4,41,0.00,,,0.00,WUHU216HW,2013-07-02 19:44:00,
2013-07-02 12:49:00,87.7,61.1,30.12,SSE,158,1.1,5.4,41,0.00,,,0.00,WUHU216HW,2013-07-02 19:49:00,
2013-07-02 12:54:00,87.8,60.7,30.12,SSW,203,2.9,5.1,40,0.00,,,0.00,WUHU216HW,2013-07-02 19:54:00,
2013-07-02 12:59:00,88.6,61.2,30.12,ESE,113,2.9,4.3,40,0.00,,,0.00,WUHU216HW,2013-07-02 19:59:00,
2013-07-02 13:04:00,88.7,61.4,30.12,SSE,158,1.8,5.4,40,0.00,,,0.00,WUHU216HW,2013-07-02 20:04:00,
2013-07-02 13:09:00,88.9,61.6,30.12,NNW,338,3.1,5.4,40,0.00,,,0.00,WUHU216HW,2013-07-02 20:09:00,
2013-07-02 13:14:00,89.1,60.8,30.12,ESE,113,2.2,4.7,39,0.00,,,0.00,WUHU216HW,2013-07-02 20:14:00,
2013-07-02 13:19:00,89.3,61.0,30.12,NE,45,0.9,4.9,39,0.00,,,0.00,WUHU216HW,2013-07-02 20:19:00,
2013-07-02 13:24:00,89.5,60.4,30.12,NNE,23,4.9,4.9,38,0.00,,,0.00,WUHU216HW,2013-07-02 20:24:00,
2013-07-02 13:29:00,89.8,59.1,30.12,West,270,1.1,4.9,36,0.00,,,0.00,WUHU216HW,2013-07-02 20:29:00,
2013-07-02 13:34:00,89.8,59.1,30.12,ENE,68,3.8,4.3,36,0.00,,,0.00,WUHU216HW,2013-07-02 20:34:00,
2013-07-02 13:39:00,90.0,59.2,30.12,SW,225,2.2,3.8,36,0.00,,,0.00,WUHU216HW,2013-07-02 20:39:00,
2013-07-02 13:44:00,90.2,59.4,30.12,ESE,113,4.7,4.7,36,0.00,,,0.00,WUHU216HW,2013-07-02 20:44:00,
2013-07-02 13:49:00,90.7,59.1,30.12,ENE,68,0.7,4.7,35,0.00,,,0.00,WUHU216HW,2013-07-02 20:49:00,
2013-07-02 13:54:00,91.1,59.4,30.12,ENE,68,2.9,3.8,35,0.00,,,0.00,WUHU216HW,2013-07-02 20:54:00,
2013-07-02 13:59:00,91.4,58.1,30.12,NW,315,6.5,6.5,33,0.00,,,0.00,WUHU216HW,2013-07-02 20:59:00,
2013-07-02 14:04:00,91.4,57.4,30.12,WNW,293,6.0,6.9,32,0.00,,,0.00,WUHU216HW,2013-07-02 21:04:00,
2013-07-02 14:09:00,91.4,59.0,30.12,SSW,203,2.5,6.9,34,0.00,,,0.00,WUHU216HW,2013-07-02 21:09:00,
2013-07-02 14:14:00,91.8,58.5,30.11,NNE,23,1.3,6.0,33,0.00,,,0.00,WUHU216HW,2013-07-02 21:14:00,
2013-07-02 14:19:00,92.0,57.1,30.11,NW,315,5.1,5.1,31,0.00,,,0.00,WUHU216HW,2013-07-02 21:19:00,
2013-07-02 14:24:00,91.8,57.7,30.11,SE,135,1.6,5.1,32,0.00,,,0.00,WUHU216HW,2013-07-02 21:24:00,
2013-07-02 14:29:00,92.0,58.6,30.11,East,90,3.1,5.6,33,0.00,,,0.00,WUHU216HW,2013-07-02 21:29:00,
2013-07-02 14:34:00,92.2,58.8,30.11,North,0,1.1,6.0,33,0.00,,,0.00,WUHU216HW,2013-07-02 21:34:00,
2013-07-02 14:39:00,92.3,58.2,30.11,SE,135,1.3,6.0,32,0.00,,,0.00,WUHU216HW,2013-07-02 21:39:00,
2013-07-02 14:45:00,92.5,57.5,30.11,NE,45,0.9,4.0,31,0.00,,,0.00,WUHU216HW,2013-07-02 21:45:00,
2013-07-02 14:50:00,92.7,56.8,30.11,WSW,248,2.2,2.9,30,0.00,,,0.00,WUHU216HW,2013-07-02 21:50:00,
2013-07-02 14:55:00,93.2,58.1,30.10,North,0,2.5,4.9,31,0.00,,,0.00,WUHU216HW,2013-07-02 21:55:00,
2013-07-02 15:00:00,93.6,57.6,30.10,ENE,68,7.6,7.6,30,0.00,,,0.00,WUHU216HW,2013-07-02 22:00:00,
2013-07-02 15:05:00,93.6,58.4,30.10,ENE,68,3.4,7.6,31,0.00,,,0.00,WUHU216HW,2013-07-02 22:05:00,
2013-07-02 15:10:00,93.6,58.4,30.10,ENE,68,1.8,6.0,31,0.00,,,0.00,WUHU216HW,2013-07-02 22:10:00,
2013-07-02 15:15:00,93.6,58.4,30.10,SSE,158,0.9,6.0,31,0.00,,,0.00,WUHU216HW,2013-07-02 22:15:00,
2013-07-02 15:20:00,94.0,58.7,30.10,NE,45,6.0,6.0,31,0.00,,,0.00,WUHU216HW,2013-07-02 22:20:00,
2013-07-02 15:25:00,93.8,56.6,30.10,West,270,1.1,7.6,29,0.00,,,0.00,WUHU216HW,2013-07-02 22:25:00,
2013-07-02 15:30:00,93.8,57.7,30.09,WNW,293,3.1,7.6,30,0.00,,,0.00,WUHU216HW,2013-07-02 22:30:00,
2013-07-02 15:35:00,94.1,58.1,30.09,NW,315,1.1,4.9,30,0.00,,,0.00,WUHU216HW,2013-07-02 22:35:00,
2013-07-02 15:40:00,94.0,54.5,30.09,WNW,293,1.8,4.9,27,0.00,,,0.00,WUHU216HW,2013-07-02 22:40:00,
2013-07-02 15:45:00,93.8,56.6,30.09,East,90,1.3,4.5,29,0.00,,,0.00,WUHU216HW,2013-07-02 22:45:00,
2013-07-02 15:50:00,94.1,58.1,30.09,East,90,4.9,6.5,30,0.00,,,0.00,WUHU216HW,2013-07-02 22:50:00,
2013-07-02 15:55:00,94.9,58.7,30.09,ENE,68,2.5,6.5,30,0.00,,,0.00,WUHU216HW,2013-07-02 22:55:00,
2013-07-02 16:00:00,95.2,59.1,30.09,NNE,23,8.5,8.5,30,0.00,,,0.00,WUHU216HW,2013-07-02 23:00:00,
2013-07-02 16:05:00,95.2,53.5,30.09,NNE,23,3.4,8.5,25,0.00,,,0.00,WUHU216HW,2013-07-02 23:05:00,
2013-07-02 16:10:00,94.9,55.4,30.08,NW,315,2.5,4.0,27,0.00,,,0.00,WUHU216HW,2013-07-02 23:10:00,
2013-07-02 16:15:00,94.7,55.2,30.09,NNW,338,0.7,3.6,27,0.00,,,0.00,WUHU216HW,2013-07-02 23:15:00,
2013-07-02 16:20:00,95.0,55.5,30.09,South,180,1.8,6.5,27,0.00,,,0.00,WUHU216HW,2013-07-02 23:20:00,
2013-07-02 16:25:00,95.4,55.8,30.08,ENE,68,8.5,8.5,27,0.00,,,0.00,WUHU216HW,2013-07-02 23:25:00,
2013-07-02 16:29:00,95.4,54.7,30.09,WSW,248,2.5,8.5,26,0.00,,,0.00,WUHU216HW,2013-07-02 23:29:00,
2013-07-02 16:34:00,95.9,55.2,30.08,NE,45,1.3,8.5,26,0.00,,,0.00,WUHU216HW,2013-07-02 23:34:00,
2013-07-02 16:39:00,96.8,54.8,30.08,NNE,23,0.9,4.0,25,0.00,,,0.00,WUHU216HW,2013-07-02 23:39:00,
2013-07-02 16:44:00,98.3,57.2,30.08,SSE,158,3.6,4.0,26,0.00,,,0.00,WUHU216HW,2013-07-02 23:44:00,
2013-07-02 16:49:00,99.4,58.1,30.08,SW,225,0.4,3.6,26,0.00,,,0.00,WUHU216HW,2013-07-02 23:49:00,
2013-07-02 16:54:00,98.8,56.5,30.08,WNW,293,0.9,2.5,25,0.00,,,0.00,WUHU216HW,2013-07-02 23:54:00,
2013-07-02 16:59:00,97.7,56.7,30.07,SW,225,1.1,3.4,26,0.00,,,0.00,WUHU216HW,2013-07-02 23:59:00,
2013-07-02 17:01:00,97.7,56.7,30.07,SSW,203,0.4,3.4,26,0.00,,,0.00,WUHU216HW,2013-07-03 00:01:00,
2013-07-02 17:06:00,99.9,58.5,30.07,SSW,203,4.7,4.7,26,0.00,,,0.00,WUHU216HW,2013-07-03 00:06:00,
2013-07-02 17:11:00,101.0,54.9,30.07,SW,225,2.2,8.3,22,0.00,,,0.00,WUHU216HW,2013-07-03 00:11:00,
2013-07-02 17:16:00,101.9,56.8,30.07,WSW,248,8.1,8.3,23,0.00,,,0.00,WUHU216HW,2013-07-03 00:16:00,
2013-07-02 17:21:00,101.5,51.2,30.07,WNW,293,11.2,11.4,19,0.00,,,0.00,WUHU216HW,2013-07-03 00:21:00,
2013-07-02 17:23:00,101.0,50.9,30.07,West,270,11.0,11.4,19,0.00,,,0.00,WUHU216HW,2013-07-03 00:23:00,
2013-07-02 17:24:00,100.6,50.6,30.07,WSW,248,10.5,11.4,19,0.00,,,0.00,WUHU216HW,2013-07-03 00:24:00,
2013-07-02 17:28:00,100.4,54.5,30.07,WSW,248,4.7,11.4,22,0.00,,,0.00,WUHU216HW,2013-07-03 00:28:00,
2013-07-02 17:33:00,100.1,51.9,30.07,WSW,248,7.6,10.5,20,0.00,,,0.00,WUHU216HW,2013-07-03 00:33:00,
2013-07-02 17:38:00,99.7,49.9,30.07,WSW,248,9.6,10.1,19,0.00,,,0.00,WUHU216HW,2013-07-03 00:38:00,
2013-07-02 17:43:00,99.2,49.4,30.07,West,270,7.6,10.3,19,0.00,,,0.00,WUHU216HW,2013-07-03 00:43:00,
2013-07-02 17:48:00,98.5,48.8,30.07,WSW,248,6.3,10.3,19,0.00,,,0.00,WUHU216HW,2013-07-03 00:48:00,
2013-07-02 17:53:00,97.6,52.1,30.07,WSW,248,2.5,10.1,22,0.00,,,0.00,WUHU216HW,2013-07-03 00:53:00,
2013-07-02 17:58:00,96.8,51.5,30.07,WSW,248,6.7,7.2,22,0.00,,,0.00,WUHU216HW,2013-07-03 00:58:00,
2013-07-02 18:00:00,96.5,49.0,30.07,West,270,10.1,10.1,20,0.00,,,0.00,WUHU216HW,2013-07-03 01:00:00,
2013-07-02 18:03:00,95.8,50.6,30.07,NNW,338,3.6,10.1,22,0.00,,,0.00,WUHU216HW,2013-07-03 01:03:00,
2013-07-02 18:08:00,94.9,48.7,30.07,SW,225,3.1,10.5,21,0.00,,,0.00,WUHU216HW,2013-07-03 01:08:00,
2013-07-02 18:09:00,94.7,48.5,30.07,West,270,10.5,10.5,21,0.00,,,0.00,WUHU216HW,2013-07-03 01:09:00,
2013-07-02 18:14:00,94.3,47.2,30.07,WSW,248,8.9,13.4,20,0.00,,,0.00,WUHU216HW,2013-07-03 01:14:00,
2013-07-02 18:19:00,94.0,48.0,30.07,NW,315,9.2,13.4,21,0.00,,,0.00,WUHU216HW,2013-07-03 01:19:00,
2013-07-02 18:24:00,93.8,47.8,30.07,WSW,248,4.9,9.4,21,0.00,,,0.00,WUHU216HW,2013-07-03 01:24:00,
2013-07-02 18:27:00,93.6,49.9,30.07,West,270,8.1,9.4,23,0.00,,,0.00,WUHU216HW,2013-07-03 01:27:00,
2013-07-02 18:32:00,93.6,49.9,30.07,West,270,4.0,8.1,23,0.00,,,0.00,WUHU216HW,2013-07-03 01:32:00,
2013-07-02 18:37:00,92.9,47.1,30.07,NNW,338,6.9,7.4,21,0.00,,,0.00,WUHU216HW,2013-07-03 01:37:00,
2013-07-02 18:42:00,92.5,49.0,30.08,West,270,4.3,7.4,23,0.00,,,0.00,WUHU216HW,2013-07-03 01:42:00,
2013-07-02 18:47:00,92.2,48.7,30.08,NW,315,4.7,9.8,23,0.00,,,0.00,WUHU216HW,2013-07-03 01:47:00,
2013-07-02 18:49:00,92.2,49.8,30.08,NW,315,3.1,9.8,24,0.00,,,0.00,WUHU216HW,2013-07-03 01:49:00,
2013-07-02 18:50:00,92.0,46.4,30.08,WSW,248,4.7,9.8,21,0.00,,,0.00,WUHU216HW,2013-07-03 01:50:00,
2013-07-02 18:55:00,92.0,43.5,30.08,WNW,293,3.4,5.4,19,0.00,,,0.00,WUHU216HW,2013-07-03 01:55:00,
2013-07-02 19:00:00,91.8,46.2,30.08,NW,315,1.1,5.4,21,0.00,,,0.00,WUHU216HW,2013-07-03 02:00:00,
2013-07-02 19:05:00,91.3,45.8,30.08,NW,315,3.6,7.8,21,0.00,,,0.00,WUHU216HW,2013-07-03 02:05:00,
2013-07-02 19:10:00,90.9,47.7,30.08,NNE,23,2.2,7.8,23,0.00,,,0.00,WUHU216HW,2013-07-03 02:10:00,
2013-07-02 19:15:00,90.2,48.2,30.08,NW,315,3.1,6.9,24,0.00,,,0.00,WUHU216HW,2013-07-03 02:15:00,
2013-07-02 19:20:00,89.5,48.6,30.09,West,270,1.1,5.1,25,0.00,,,0.00,WUHU216HW,2013-07-03 02:20:00,
2013-07-02 19:25:00,89.1,49.4,30.09,North,0,1.3,4.5,26,0.00,,,0.00,WUHU216HW,2013-07-03 02:25:00,
2013-07-02 19:30:00,88.9,49.2,30.09,WNW,293,3.4,4.5,26,0.00,,,0.00,WUHU216HW,2013-07-03 02:30:00,
2013-07-02 19:32:00,88.9,49.2,30.09,NW,315,1.8,4.5,26,0.00,,,0.00,WUHU216HW,2013-07-03 02:32:00,
2013-07-02 19:37:00,88.4,51.0,30.09,North,0,2.5,3.8,28,0.00,,,0.00,WUHU216HW,2013-07-03 02:37:00,
2013-07-02 19:42:00,88.0,49.5,30.09,WNW,293,4.0,4.0,27,0.00,,,0.00,WUHU216HW,2013-07-03 02:42:00,
2013-07-02 19:46:00,87.5,50.1,30.09,NW,315,1.6,6.3,28,0.00,,,0.00,WUHU216HW,2013-07-03 02:46:00,
2013-07-02 19:51:00,87.1,49.9,30.09,West,270,0.7,6.3,28,0.00,,,0.00,WUHU216HW,2013-07-03 02:51:00,
2013-07-02 19:56:00,86.8,49.6,30.09,WNW,293,3.6,3.6,28,0.00,,,0.00,WUHU216HW,2013-07-03 02:56:00,
2013-07-02 20:01:00,86.4,49.2,30.09,NW,315,3.4,3.6,28,0.00,,,0.00,WUHU216HW,2013-07-03 03:01:00,
2013-07-02 20:02:00,86.4,49.2,30.09,WSW,248,0.4,3.6,28,0.00,,,0.00,WUHU216HW,2013-07-03 03:02:00,
2013-07-02 20:07:00,85.9,49.9,30.09,NNW,338,0.7,3.4,29,0.00,,,0.00,WUHU216HW,2013-07-03 03:07:00,
2013-07-02 20:12:00,85.5,50.7,30.10,NW,315,1.8,3.6,30,0.00,,,0.00,WUHU216HW,2013-07-03 03:12:00,
2013-07-02 20:17:00,85.3,51.3,30.10,WSW,248,2.0,3.6,31,0.00,,,0.00,WUHU216HW,2013-07-03 03:17:00,
2013-07-02 20:20:00,85.0,50.9,30.10,West,270,1.8,3.4,31,0.00,,,0.00,WUHU216HW,2013-07-03 03:20:00,
2013-07-02 20:25:00,84.8,51.6,30.10,WNW,293,0.9,3.4,32,0.00,,,0.00,WUHU216HW,2013-07-03 03:25:00,
2013-07-02 20:30:00,84.4,51.2,30.10,NW,315,0.4,3.4,32,0.00,,,0.00,WUHU216HW,2013-07-03 03:30:00,
2013-07-02 20:35:00,84.4,52.0,30.10,NNE,23,0.9,3.4,33,0.00,,,0.00,WUHU216HW,2013-07-03 03:35:00,
2013-07-02 20:39:00,84.2,51.8,30.10,NE,45,3.4,3.4,33,0.00,,,0.00,WUHU216HW,2013-07-03 03:39:00,
2013-07-02 20:44:00,84.1,51.8,30.10,ENE,68,0.9,3.4,33,0.00,,,0.00,WUHU216HW,2013-07-03 03:44:00,
2013-07-02 20:49:00,83.9,52.4,30.10,NNE,23,0.0,1.6,34,0.00,,,0.00,WUHU216HW,2013-07-03 03:49:00,
2013-07-02 20:54:00,83.3,51.8,30.10,East,90,0.4,1.1,34,0.00,,,0.00,WUHU216HW,2013-07-03 03:54:00,
2013-07-02 20:59:00,83.0,52.3,30.10,ENE,68,1.1,1.1,35,0.00,,,0.00,WUHU216HW,2013-07-03 03:59:00,
2013-07-02 21:00:00,82.8,52.2,30.10,NE,45,1.8,1.8,35,0.00,,,0.00,WUHU216HW,2013-07-03 04:00:00,
2013-07-02 21:01:00,82.8,52.2,30.11,NE,45,0.9,1.8,35,0.00,,,0.00,WUHU216HW,2013-07-03 04:01:00,
2013-07-02 21:02:00,82.6,52.0,30.11,NE,45,0.4,1.8,35,0.00,,,0.00,WUHU216HW,2013-07-03 04:02:00,
2013-07-02 21:03:00,82.4,52.7,30.11,NNE,23,0.9,1.8,36,0.00,,,0.00,WUHU216HW,2013-07-03 04:03:00,
2013-07-02 21:04:00,82.4,52.7,30.11,NNE,23,0.9,1.8,36,0.00,,,0.00,WUHU216HW,2013-07-03 04:04:00,
2013-07-02 21:09:00,82.1,53.1,30.11,NNE,23,2.2,2.2,37,0.00,,,0.00,WUHU216HW,2013-07-03 04:09:00,
2013-07-02 21:14:00,81.4,52.5,30.11,NNE,23,1.1,2.2,37,0.00,,,0.00,WUHU216HW,2013-07-03 04:14:00,
2013-07-02 21:19:00,81.0,52.9,30.11,NNE,23,0.7,2.2,38,0.00,,,0.00,WUHU216HW,2013-07-03 04:19:00,
2013-07-02 21:24:00,81.0,52.9,30.11,NNE,23,0.0,1.1,38,0.00,,,0.00,WUHU216HW,2013-07-03 04:24:00,
2013-07-02 21:29:00,80.6,53.4,30.11,NNE,23,1.1,1.3,39,0.00,,,0.00,WUHU216HW,2013-07-03 04:29:00,
2013-07-02 21:31:00,80.5,53.3,30.11,NNW,338,0.4,1.3,39,0.00,,,0.00,WUHU216HW,2013-07-03 04:31:00,
2013-07-02 21:32:00,80.5,53.3,30.11,North,0,0.4,1.3,39,0.00,,,0.00,WUHU216HW,2013-07-03 04:32:00,
2013-07-02 21:37:00,80.3,53.1,30.11,ESE,113,1.1,1.1,39,0.00,,,0.00,WUHU216HW,2013-07-03 04:37:00,
2013-07-02 21:42:00,80.1,53.7,30.11,NNE,23,1.3,1.3,40,0.00,,,0.00,WUHU216HW,2013-07-03 04:42:00,
2013-07-02 21:45:00,79.9,53.6,30.11,NNE,23,1.1,1.8,40,0.00,,,0.00,WUHU216HW,2013-07-03 04:45:00,
2013-07-02 21:46:00,79.9,53.6,30.11,NNE,23,1.1,1.8,40,0.00,,,0.00,WUHU216HW,2013-07-03 04:46:00,
2013-07-02 21:51:00,79.7,54.0,30.11,NE,45,1.8,1.8,41,0.00,,,0.00,WUHU216HW,2013-07-03 04:51:00,
2013-07-02 21:53:00,79.6,53.8,30.12,NNE,23,1.3,1.8,41,0.00,,,0.00,WUHU216HW,2013-07-03 04:53:00,
2013-07-02 21:58:00,79.4,54.3,30.12,NNE,23,0.4,1.8,42,0.00,,,0.00,WUHU216HW,2013-07-03 04:58:00,
2013-07-02 22:03:00,79.2,54.1,30.12,ESE,113,1.1,1.3,42,0.00,,,0.00,WUHU216HW,2013-07-03 05:03:00,
2013-07-02 22:07:00,79.0,54.5,30.12,ESE,113,0.0,1.1,43,0.00,,,0.00,WUHU216HW,2013-07-03 05:07:00,
2013-07-02 22:12:00,78.8,54.4,30.12,ESE,113,0.4,1.1,43,0.00,,,0.00,WUHU216HW,2013-07-03 05:12:00,
2013-07-02 22:17:00,78.8,55.0,30.12,ESE,113,0.4,1.3,44,0.00,,,0.00,WUHU216HW,2013-07-03 05:17:00,
2013-07-02 22:19:00,78.7,54.8,30.12,ESE,113,0.4,1.3,44,0.00,,,0.00,WUHU216HW,2013-07-03 05:19:00,
2013-07-02 22:24:00,78.3,55.2,30.12,NE,45,0.9,0.9,45,0.00,,,0.00,WUHU216HW,2013-07-03 05:24:00,
2013-07-02 22:29:00,78.1,56.2,30.12,NNE,23,1.8,1.8,47,0.00,,,0.00,WUHU216HW,2013-07-03 05:29:00,
2013-07-02 22:34:00,77.8,55.3,30.12,NNE,23,2.7,2.7,46,0.00,,,0.00,WUHU216HW,2013-07-03 05:34:00,
2013-07-02 22:39:00,77.4,56.2,30.12,North,0,1.8,2.7,48,0.00,,,0.00,WUHU216HW,2013-07-03 05:39:00,
2013-07-02 22:44:00,77.4,55.5,30.12,NNE,23,1.8,2.7,47,0.00,,,0.00,WUHU216HW,2013-07-03 05:44:00,
2013-07-02 22:49:00,77.4,55.5,30.12,NNE,23,3.1,3.6,47,0.00,,,0.00,WUHU216HW,2013-07-03 05:49:00,
2013-07-02 22:54:00,77.2,55.4,30.13,NNE,23,1.6,3.6,47,0.00,,,0.00,WUHU216HW,2013-07-03 05:54:00,
2013-07-02 22:57:00,77.0,55.3,30.13,NNE,23,1.6,3.1,47,0.00,,,0.00,WUHU216HW,2013-07-03 05:57:00,
2013-07-02 22:58:00,77.0,55.3,30.13,NNE,23,1.1,3.1,47,0.00,,,0.00,WUHU216HW,2013-07-03 05:58:00,
2013-07-02 23:02:00,76.9,55.1,30.13,North,0,1.1,2.5,47,0.00,,,0.00,WUHU216HW,2013-07-03 06:02:00,
2013-07-02 23:07:00,76.7,55.5,30.13,NNE,23,1.3,2.0,48,0.00,,,0.00,WUHU216HW,2013-07-03 06:07:00,
2013-07-02 23:12:00,76.7,55.5,30.13,North,0,1.1,2.0,48,0.00,,,0.00,WUHU216HW,2013-07-03 06:12:00,
2013-07-02 23:13:00,76.5,55.4,30.13,North,0,1.3,2.0,48,0.00,,,0.00,WUHU216HW,2013-07-03 06:13:00,
2013-07-02 23:16:00,76.5,55.4,30.13,NNE,23,0.2,1.8,48,0.00,,,0.00,WUHU216HW,2013-07-03 06:16:00,
2013-07-02 23:17:00,76.5,55.4,30.13,NNE,23,0.2,1.8,48,0.00,,,0.00,WUHU216HW,2013-07-03 06:17:00,
2013-07-02 23:22:00,76.1,55.6,30.13,West,270,0.4,1.8,49,0.00,,,0.00,WUHU216HW,2013-07-03 06:22:00,
2013-07-02 23:24:00,75.8,55.4,30.13,NNW,338,0.4,1.8,49,0.00,,,0.00,WUHU216HW,2013-07-03 06:24:00,
2013-07-02 23:26:00,75.8,55.4,30.13,North,0,0.4,1.3,49,0.00,,,0.00,WUHU216HW,2013-07-03 06:26:00,
2013-07-02 23:31:00,75.6,55.8,30.13,North,0,0.4,0.9,50,0.00,,,0.00,WUHU216HW,2013-07-03 06:31:00,
2013-07-02 23:32:00,75.6,55.8,30.14,NNE,23,1.1,1.1,50,0.00,,,0.00,WUHU216HW,2013-07-03 06:32:00,
2013-07-02 23:37:00,75.4,55.6,30.14,NE,45,0.4,1.1,50,0.00,,,0.00,WUHU216HW,2013-07-03 06:37:00,
2013-07-02 23:42:00,75.4,56.1,30.14,ENE,68,0.4,1.1,51,0.00,,,0.00,WUHU216HW,2013-07-03 06:42:00,
2013-07-02 23:44:00,75.2,56.0,30.14,NNE,23,0.4,1.1,51,0.00,,,0.00,WUHU216HW,2013-07-03 06:44:00,
2013-07-02 23:49:00,75.2,56.0,30.14,East,90,1.3,1.3,51,0.00,,,0.00,WUHU216HW,2013-07-03 06:49:00,
2013-07-02 23:54:00,75.1,56.3,30.14,ENE,68,0.2,1.3,52,0.00,,,0.00,WUHU216HW,2013-07-03 06:54:00,
2013-07-02 23:55:00,75.1,56.3,30.14,ENE,68,0.0,1.3,52,0.00,,,0.00,WUHU216HW,2013-07-03 06:55:00,